DW4879 Weather Reports


time (UTC)temp
C
wind
direction
speed
KPH
gust
KPH
rain 1hr
cm
rain 24hr
cm
rain mn
cm
humidity
%
barometer
mb
20260504211053 20 325 9.7 19.3 0.00 0.00 0.00 21 1015.4
20260504210545 20 309 11.3 22.5 0.00 0.00 0.00 22 1015.5
20260504210052 20 302 9.7 22.5 0.00 0.00 0.00 21 1015.6
20260504205556 21 293 4.8 12.9 0.00 0.00 0.00 21 1015.6
20260504205104 21 252 4.8 12.9 0.00 0.00 0.00 21 1015.5
20260504204502 21 225 4.8 17.7 0.00 0.00 0.00 21 1015.9
20260504204010 21 227 9.7 17.7 0.00 0.00 0.00 21 1015.9
20260504203502 21 199 1.6 16.1 0.00 0.00 0.00 22 1016.0
20260504203009 20 207 9.7 16.1 0.00 0.00 0.00 22 1015.9
20260504202605 20 238 8.0 16.1 0.00 0.00 0.00 22 1015.9
20260504202006 20 190 6.4 16.1 0.00 0.00 0.00 23 1016.1
20260504201601 20 202 1.6 14.5 0.00 0.00 0.00 23 1016.1
20260504201053 21 223 8.0 19.3 0.00 0.00 0.00 22 1016.2
20260504200600 21 199 8.0 16.1 0.00 0.00 0.00 21 1016.1
20260504200054 20 311 6.4 14.5 0.00 0.00 0.00 22 1016.3
20260504195557 20 254 3.2 17.7 0.00 0.00 0.00 23 1016.3
20260504195102 20 234 6.4 17.7 0.00 0.00 0.00 23 1016.4
20260504194506 20 273 4.8 17.7 0.00 0.00 0.00 24 1016.5
20260504194101 19 208 8.0 17.7 0.00 0.00 0.00 24 1016.4
20260504193506 19 270 8.0 17.7 0.00 0.00 0.00 26 1016.4
20260504193109 19 298 9.7 19.3 0.00 0.00 0.00 25 1016.5
20260504192551 19 226 6.4 19.3 0.00 0.00 0.00 26 1016.5
20260504192058 19 219 8.0 16.1 0.00 0.00 0.00 25 1016.4
20260504191615 19 285 3.2 17.7 0.00 0.00 0.00 26 1016.4
20260504191007 19 280 8.0 19.3 0.00 0.00 0.00 26 1016.5
20260504190604 19 267 6.4 17.7 0.00 0.00 0.00 26 1016.4
20260504190006 18 259 6.4 16.1 0.00 0.00 0.00 27 1016.6
20260504185600 18 188 4.8 14.5 0.00 0.00 0.00 27 1016.8
20260504185002 18 217 6.4 14.5 0.00 0.00 0.00 28 1016.7
20260504184557 18 286 4.8 16.1 0.00 0.00 0.00 29 1016.8
20260504184048 18 281 6.4 14.5 0.00 0.00 0.00 29 1016.8
20260504183557 18 259 4.8 12.9 0.00 0.00 0.00 30 1016.9
20260504183046 17 277 4.8 20.9 0.00 0.00 0.00 30 1016.9
20260504182555 17 284 6.4 20.9 0.00 0.00 0.00 30 1016.9
20260504182103 17 290 8.0 19.3 0.00 0.00 0.00 29 1017.0
20260504181506 17 304 6.4 19.3 0.00 0.00 0.00 30 1017.1
20260504181058 17 249 8.0 16.1 0.00 0.00 0.00 29 1017.1
20260504180607 17 298 8.0 22.5 0.00 0.00 0.00 29 1017.3
20260504180058 17 274 6.4 19.3 0.00 0.00 0.00 29 1017.3
20260504175504 17 241 9.7 19.3 0.00 0.00 0.00 29 1017.3
20260504175057 17 268 6.4 17.7 0.00 0.00 0.00 30 1017.1
20260504174605 17 288 6.4 17.7 0.00 0.00 0.00 31 1017.2
20260504174056 17 202 8.0 17.7 0.00 0.00 0.00 31 1017.1
20260504173550 16 212 3.2 12.9 0.00 0.00 0.00 32 1017.2
20260504173054 16 330 4.8 14.5 0.00 0.00 0.00 34 1017.2
20260504172600 16 275 6.4 14.5 0.00 0.00 0.00 34 1017.3
20260504172004 16 188 6.4 14.5 0.00 0.00 0.00 34 1017.4
20260504171559 16 261 3.2 16.1 0.00 0.00 0.00 35 1017.3
20260504171003 16 281 6.4 16.1 0.00 0.00 0.00 36 1017.3
20260504170508 15 267 6.4 17.7 0.00 0.00 0.00 37 1017.3
20260504160124 13 304 4.8 12.9 0.00 0.00 0.00 45 1017.4
20260504151050 13 294 1.6 3.2 0.00 0.00 0.00 47 1017.7
20260504150539 13 271 0.0 3.2 0.00 0.00 0.00 46 1017.6
20260504141002 11 110 0.0 4.8 0.00 0.00 0.00 52 1017.4
20260504140509 11 116 1.6 4.8 0.00 0.00 0.00 53 1017.5
20260504130534 11 76 6.4 16.1 0.00 0.00 0.00 55 1016.8
20260504110555 12 73 4.8 9.7 0.00 0.00 0.00 47 1016.5
20260504100519 12 32 4.8 16.1 0.00 0.00 0.00 45 1016.3
20260504100104 12 360 6.4 16.1 0.00 0.00 0.00 45 1016.3
20260504082003 13 118 6.4 14.5 0.00 0.00 0.00 41 1016.2
20260504081556 13 103 4.8 11.3 0.00 0.00 0.00 40 1016.1
20260504081104 13 103 3.2 8.0 0.00 0.00 0.00 40 1016.2
20260504080555 13 127 3.2 8.0 0.00 0.00 0.00 40 1016.2
20260504050542 16 286 0.0 3.2 0.00 0.00 0.00 33 1017.0
20260504045543 17 9 1.6 4.8 0.00 0.00 0.00 32 1016.8
20260504045045 17 9 1.6 4.8 0.00 0.00 0.00 32 1016.7
20260504044600 17 309 1.6 4.8 0.00 0.00 0.00 32 1016.7
20260504044059 17 277 1.6 4.8 0.00 0.00 0.00 32 1016.8
20260504043550 17 275 0.0 4.8 0.00 0.00 0.00 32 1016.8
20260504043056 17 229 0.0 8.0 0.00 0.00 0.00 31 1016.9
20260504042606 17 185 0.0 12.9 0.00 0.00 0.00 31 1016.9
20260504042006 17 207 3.2 16.1 0.00 0.00 0.00 31 1017.2
20260504041600 17 189 1.6 19.3 0.00 0.00 0.00 30 1017.1
20260504041002 18 212 9.7 19.3 0.00 0.00 0.00 29 1017.1
20260504040558 18 213 4.8 12.9 0.00 0.00 0.00 26 1017.0
20260504040120 18 238 4.8 11.3 0.00 0.00 0.00 26 1017.0
20260504035559 18 274 3.2 14.5 0.00 0.00 0.00 25 1017.0
20260504035101 18 240 4.8 12.9 0.00 0.00 0.00 25 1017.0
20260504034502 18 230 3.2 12.9 0.00 0.00 0.00 24 1016.9
20260504034059 18 202 4.8 12.9 0.00 0.00 0.00 24 1016.9
20260504033502 19 192 1.6 19.3 0.00 0.00 0.00 24 1016.8
20260504033057 19 289 4.8 19.3 0.00 0.00 0.00 23 1016.8
20260504032604 19 232 4.8 19.3 0.00 0.00 0.00 23 1016.7
20260504032053 19 298 11.3 19.3 0.00 0.00 0.00 23 1016.7
20260504031545 19 241 6.4 16.1 0.00 0.00 0.00 23 1016.6
20260504031052 19 252 6.4 16.1 0.00 0.00 0.00 22 1016.6
20260504030600 19 223 4.8 12.9 0.00 0.00 0.00 23 1016.6
20260504030001 19 234 4.8 16.1 0.00 0.00 0.00 22 1016.4
20260504025512 20 229 4.8 17.7 0.00 0.00 0.00 22 1016.5
20260504025102 20 200 9.7 17.7 0.00 0.00 0.00 21 1016.4
20260504024552 19 219 3.2 11.3 0.00 0.00 0.00 21 1016.4
20260504024100 19 213 1.6 29.0 0.00 0.00 0.00 21 1016.3
20260504023551 19 294 11.3 29.0 0.00 0.00 0.00 22 1016.2
20260504023057 19 238 4.8 16.1 0.00 0.00 0.00 21 1016.1
20260504022603 20 213 1.6 3.2 0.00 0.00 0.00 21 1016.2
20260504022006 20 303 0.0 0.0 0.00 0.00 0.00 21 1016.0
20260504021601 20 303 0.0 0.0 0.00 0.00 0.00 20 1016.0
20260504021004 20 303 0.0 1.6 0.00 0.00 0.00 20 1016.0
20260504020510 20 303 0.0 3.2 0.00 0.00 0.00 20 1016.0
20260504020105 20 303 0.0 3.2 0.00 0.00 0.00 20 1015.9
20260504015556 20 303 0.0 3.2 0.00 0.00 0.00 20 1015.9
20260504015102 20 303 0.0 1.6 0.00 0.00 0.00 20 1015.9
20260504014505 21 303 0.0 3.2 0.00 0.00 0.00 20 1016.0
20260504014008 21 303 0.0 3.2 0.00 0.00 0.00 20 1016.0
20260504013605 21 303 0.0 3.2 0.00 0.00 0.00 19 1015.9
20260504013103 21 303 0.0 3.2 0.00 0.00 0.00 19 1016.0
20260504012559 21 303 0.0 3.2 0.00 0.00 0.00 19 1016.0
20260504012050 21 303 0.0 3.2 0.00 0.00 0.00 19 1016.0
20260504011541 21 306 0.0 4.8 0.00 0.00 0.00 19 1016.0
20260504011048 21 306 1.6 4.8 0.00 0.00 0.00 19 1016.1
20260504010539 22 289 1.6 6.4 0.00 0.00 0.00 19 1016.0
20260504010053 22 248 1.6 8.0 0.00 0.00 0.00 18 1016.0
20260504005551 22 246 3.2 8.0 0.00 0.00 0.00 18 1016.1
20260504005059 22 213 1.6 14.5 0.00 0.00 0.00 18 1016.1
20260504004604 22 232 0.0 14.5 0.00 0.00 0.00 18 1016.2
20260504004056 23 309 6.4 12.9 0.00 0.00 0.00 17 1016.2
20260504003601 23 225 3.2 9.7 0.00 0.00 0.00 17 1016.2
20260504003006 23 234 4.8 9.7 0.00 0.00 0.00 17 1016.2
20260504002559 23 169 3.2 12.9 0.00 0.00 0.00 17 1016.2
20260504002004 23 259 4.8 14.5 0.00 0.00 0.00 17 1016.3
20260504001603 23 182 4.8 20.9 0.00 0.00 0.00 17 1016.4
20260504001104 23 171 14.5 20.9 0.00 0.00 0.00 17 1016.3
20260504000555 23 189 11.3 17.7 0.00 0.00 0.00 17 1016.3
20260504000132 23 194 11.3 16.1 0.00 0.00 0.00 17 1016.3
20260503235504 23 179 8.0 16.1 0.00 0.00 0.00 16 1016.3
20260503235101 23 207 6.4 14.5 0.00 0.00 0.00 17 1016.4
20260503234505 23 246 3.2 14.5 0.00 0.00 0.00 17 1016.5
20260503234058 23 272 6.4 14.5 0.00 0.00 0.00 16 1016.6
20260503233604 23 289 6.4 16.1 0.00 0.00 0.00 16 1016.5
20260503233004 24 284 6.4 12.9 0.00 0.00 0.00 16 1016.6
20260503232514 24 180 4.8 9.7 0.00 0.00 0.00 16 1016.6
20260503232002 25 249 4.8 14.5 0.00 0.00 0.00 16 1016.7
20260503231514 24 224 6.4 16.1 0.00 0.00 0.00 16 1016.7
20260503231016 24 183 4.8 14.5 0.00 0.00 0.00 16 1016.8
20260503230524 23 207 4.8 17.7 0.00 0.00 0.00 16 1016.8
20260503230028 23 281 11.3 20.9 0.00 0.00 0.00 16 1016.9
20260503225533 23 203 9.7 17.7 0.00 0.00 0.00 16 1016.9
20260503225039 24 304 6.4 17.7 0.00 0.00 0.00 16 1017.0
20260503224547 25 241 11.3 25.7 0.00 0.00 0.00 15 1017.1
20260503224041 25 170 6.4 32.2 0.00 0.00 0.00 15 1017.2
20260503223545 25 206 1.6 12.9 0.00 0.00 0.00 15 1017.2
20260503223050 24 300 6.4 19.3 0.00 0.00 0.00 16 1017.3
20260503222557 24 220 3.2 19.3 0.00 0.00 0.00 15 1017.4
20260503222048 24 211 6.4 19.3 0.00 0.00 0.00 16 1017.4
20260503221555 23 5 9.7 22.5 0.00 0.00 0.00 15 1017.6
20260503221100 24 328 4.8 22.5 0.00 0.00 0.00 16 1017.7
20260503220503 23 161 4.8 11.3 0.00 0.00 0.00 16 1017.7
20260503220121 23 197 6.4 14.5 0.00 0.00 0.00 16 1017.8
20260503215604 24 159 6.4 20.9 0.00 0.00 0.00 15 1017.9
20260503215009 25 161 12.9 20.9 0.00 0.00 0.00 14 1017.8
20260503214604 25 325 4.8 17.7 0.00 0.00 0.00 15 1018.0
20260503214004 25 204 4.8 16.1 0.00 0.00 0.00 16 1018.0
20260503213559 24 269 8.0 16.1 0.00 0.00 0.00 15 1018.1
20260503213105 23 282 9.7 16.1 0.00 0.00 0.00 16 1018.2
20260503212556 23 312 4.8 20.9 0.00 0.00 0.00 16 1018.2
20260503212047 23 30 12.9 20.9 0.00 0.00 0.00 16 1018.3
20260503211554 22 294 11.3 17.7 0.00 0.00 0.00 16 1018.4